Weather Service Report


422 
ASUS45 KSLC 101710
RWRUT 

UTAH REGIONAL WEATHER ROUNDUP
NATIONAL WEATHER SERVICE SALT LAKE CITY UT
1000 AM MST SAT DEC 10 2016

UTZ001>011-023>025-101800-

NORTHERN UTAH
  
CITY           SKY/WX    TMP DP  RH WIND       PRES   REMARKS
BRIGHAM CITY     N/A     39  36  87 S8        29.95S WCI  34          
HILL AFB       LGT RAIN  37  35  92 SE20      29.93F WCI  27          
LOGAN          LGT RAIN  38  35  89 S16       29.91S WCI  29          
OGDEN          LGT RAIN  39  36  89 SE12      29.93F FOG     WCI  32  
SALT LAKE CITY CLOUDY    42  39  89 CALM      29.92F                  
WENDOVER       CLOUDY    34  27  75 E3        29.93S                  
HEBER CITY     MIX PCPN  34  32  93 CALM      29.96R                  

$$

UTZ011>015-024>027-101800-

CENTRAL/NORTHEAST UTAH
  
CITY           SKY/WX    TMP DP  RH WIND       PRES   REMARKS
PROVO AIRPORT  CLOUDY    40  36  86 CALM      29.97S                  
MOAB/CANYONLAN CLOUDY    28  15  58 CALM      30.12S                  
DELTA          CLOUDY    45  34  65 S30G39    29.98S                  
PRICE          CLOUDY    28  18  66 CALM      30.09S                  
RICHFIELD      CLOUDY    43  32  65 N5        30.07R                  
ROOSEVELT      CLOUDY    25  19  80 CALM      30.08R                  
VERNAL         CLOUDY    25  17  72 CALM      30.05R                  

$$

UTZ013>016-019>022-027-101800-

SOUTHERN UTAH
  
CITY           SKY/WX    TMP DP  RH WIND       PRES   REMARKS
BRYCE CANYON   CLOUDY    32  30  92 SE5       30.15R WCI  27          
CEDAR CITY     PTSUNNY   44  34  67 SW17G24   30.10R                  
MILFORD        CLOUDY    44  34  67 S33G39    30.05R                  
ST GEORGE      CLOUDY    45  28  53 CALM      30.19S                  
HANKSVILLE     CLOUDY    25  10  54 CALM      30.17S                  
KANAB          CLOUDY    36  30  80 CALM      30.24                   
BLANDING       MOSUNNY   36  26  65 CALM      30.27R                  

$$

REGIONAL REPORTS     COLORADO/ARIZONA
  
CITY           SKY/WX    TMP DP  RH WIND       PRES   REMARKS
CRAIG, CO      CLOUDY    43  26  51 SW18G25   29.98S                  
GRAND JUNCTION CLOUDY    30  23  75 SW5       30.11F WCI  25          
RIFLE, CO      CLOUDY    26  22  84 CALM      30.11F                  
MONTROSE, CO   CLOUDY    33  26  75 SE5       30.13F WCI  29          
CORTEZ, CO     SUNNY     41  30  65 CALM      30.19R                  
COLORADO CITY  CLOUDY    45  37  76 CALM      30.21R                  
PAGE, AZ       PTSUNNY   39  18  42 E3        30.17S                  
GRAND CANYON   SUNNY     42  35  76 SW13      30.21F                  
KINGMAN, AZ    SUNNY     53  36  52 CALM      30.15R                  
FLAGSTAFF, AZ  SUNNY     41  33  73 SW8       30.24R                  

$$

REGIONAL REPORTS    NEVADA/IDAHO/WYOMING
  
CITY           SKY/WX    TMP DP  RH WIND       PRES   REMARKS
LAS VEGAS, NV  PTSUNNY   50  18  28 E3        30.14R                  
ELY, NY        CLOUDY    38  28  67 VRB6      30.04R WCI  33          
ELKO, NV       LGT RAIN  37  35  92 E3        29.95R FOG              
POCATELLO, ID  LGT RAIN  37  34  89 SW13      29.84S WCI  29          
BURLEY, ID     LGT RAIN  37  35  92 S15       29.84R WCI  28          
FORT BRIDGER,  CLOUDY    37  36  99 SW23G32   29.91R WCI  25          
EVANSTON, WY   HVY SNOW  32  30  92 SW15      29.91S VSB 1/4 WCI  22  
ROCK SPRINGS,  CLOUDY    36  29  75 SW10      29.89F WCI  28          
KEMMERER, WY   LGT SNOW  32  32 100 SW16G23   29.88F WCI  21          

$$
  

Return to Home page


Western Regional Climate Center, wrcc@dri.edu